[[{"header":{"parameterUnit":"m.s-1","parameterCategory":1,"la1":30.2991,"la2":30.254,"lo1":-89.0895,"lo2":-89.0444,"dy":0.0017,"dx":0.0017,"nx":28,"ny":28,"refTime":"2024-03-27T21:00:00:Z","depth":0,"parameterNumber":2,"parameterNumberName":"U-component_of_WINDS"},"data":[0,0,0,0,0,0,0,0,0,0,0,0,0,0,0,0,0,0,0,0,0,0,0,0,0,0,0,0,0,0,0,0,0,0,0,0,0,0,0,0,0,0,0,0,0,0,0,0,0,0,0,0,0,0,0,0,0,0,0.372,0.372,0,0.3718,0.3718,0.3718,0.3701,0.37,0.37,0.37,0.3698,0.3699,0.3699,0,0,0,0,0,0,0,0,0,0,0,0,0,0.371,0.371,0.372,0.372,0.372,0.3718,0.3718,0.3718,0.3701,0.37,0.37,0.3699,0.3698,0.3699,0.3699,0,0,0,0,0,0,0,0,0,0,0,0,0,0.3712,0.371,0.372,0.3711,0.371,0.3718,0.3718,0.3718,0.3701,0.37,0.37,0.3699,0.3698,0.3699,0.3699,0.3715,0,0,0.3701,0.3701,0,0,0,0,0,0,0,0,0.3712,0.3712,0.3712,0.3712,0.3711,0.3709,0.3714,0.3717,0.3701,0.3704,0.37,0.3699,0.3702,0.3702,0.3704,0.3715,0.3715,0.3701,0.3701,0.3701,0.3701,0,0,0,0,0,0,0,0.3711,0.3712,0.3719,0.3712,0.3711,0.3708,0.3707,0.3714,0.3707,0.3704,0.3703,0.3703,0.3702,0.3703,0.3703,0.3715,0.3701,0.3701,0.3702,0.3702,0.3741,0.3742,0,0,0,0,0,0,0.3712,0.3712,0.3719,0.3719,0.371,0.3708,0.3708,0.371,0.3707,0.3706,0.3703,0.3702,0.3702,0.3703,0.3703,0.3723,0.3701,0.3702,0.3702,0.3741,0.3742,0.3742,0,0,0,0,0,0,0.3712,0.3713,0.3719,0.3715,0.3716,0.3709,0.3712,0.371,0.3712,0.3706,0.3705,0.3706,0.3702,0.3703,0.3713,0.3723,0.3702,0.3703,0.374,0.3741,0.3742,0.3762,0,0,0,0,0,0,0.3712,0.3713,0.3719,0.3715,0.3716,0.3728,0.3712,0.3711,0.3713,0.3711,0.3708,0.3707,0.3702,0.3712,0.3713,0.3723,0.3703,0.3739,0.374,0.3742,0.376,0.3763,0.3766,0,0,0,0,0,0.3712,0.3724,0.3719,0.372,0.3723,0.3729,0.3729,0.3722,0.3713,0.3719,0.3716,0.3708,0.3721,0.3713,0.3714,0.3724,0.3738,0.374,0.3742,0.3759,0.3763,0.3766,0,0,0,0,0,0,0.3729,0.3724,0.3718,0.373,0.373,0.3726,0.3733,0.3726,0.3728,0.3727,0.3718,0.3718,0.3729,0.3728,0.3719,0.3741,0.3728,0.373,0.3741,0.3745,0.3748,0.3748,0.3703,0,0,0,0,0,0.3734,0.3739,0.3734,0.3745,0.3745,0.3739,0.3742,0.3736,0.3736,0.3736,0.3733,0.3734,0.3738,0.3741,0.3745,0.376,0.376,0.3768,0.3771,0.3773,0.3775,0.3784,0.3788,0.3748,0.3748,0.3748,0,0,0.3745,0.3743,0.3746,0.3749,0.3748,0.3754,0.3739,0.3746,0.375,0.3737,0.3746,0.3745,0.3745,0.3758,0.3763,0.3757,0.3786,0.3775,0.3777,0.3778,0.3786,0.379,0.3793,0.3749,0.3749,0.3748,0,0,0.3767,0.3766,0.3775,0.3775,0.3775,0.3771,0.3773,0.377,0.3769,0.3778,0.3769,0.3774,0.3782,0.3783,0.3784,0.3808,0.3801,0.381,0.3825,0.3834,0.3837,0.384,0.385,0.3853,0.3812,0.3812,0.3812,0,0.3781,0.3789,0.3781,0.3788,0.379,0.3779,0.3788,0.3789,0.379,0.3792,0.3785,0.3795,0.3794,0.3807,0.3814,0.3815,0.3818,0.381,0.3837,0.384,0.3843,0.3852,0.3855,0.3813,0.3813,0.3813,0.3813,0,0.3805,0.3811,0.3819,0.382,0.3823,0.3832,0.3826,0.383,0.3825,0.3822,0.3832,0.3831,0.3835,0.3838,0.3832,0.3851,0.3847,0.3839,0.3826,0.3848,0.3856,0.3859,0.3815,0.3814,0.3814,0.3814,0,0,0.3838,0.3836,0.3839,0.384,0.3839,0.3844,0.3852,0.3856,0.386,0.3861,0.3869,0.3877,0.3869,0.3871,0.3866,0.3874,0.3894,0.3865,0.3865,0.3871,0.3916,0.3922,0.3926,0.3889,0.389,0.3891,0.3916,0,0.386,0.3874,0.3868,0.3883,0.3889,0.3879,0.3887,0.3888,0.3886,0.3891,0.3889,0.3894,0.3884,0.3885,0.3892,0.389,0.3903,0.3888,0.3897,0.3897,0.3898,0.393,0.3937,0.3961,0.3919,0.392,0.392,0,0.3887,0.389,0.3906,0.3905,0.3908,0.3915,0.3918,0.3923,0.3924,0.3922,0.3925,0.3919,0.3928,0.3916,0.3929,0.3919,0.3923,0.3922,0.3923,0.3924,0.391,0.3932,0.3968,0.3972,0.3925,0.3925,0.3924,0,0.391,0.3918,0.3929,0.393,0.3929,0.3934,0.3935,0.3935,0.3938,0.3942,0.3944,0.3949,0.3951,0.3955,0.3951,0.3942,0.3965,0.3952,0.3965,0.3965,0.397,0.3969,0.4007,0.3971,0.3971,0.3971,0.3971,0,0.3935,0.3946,0.3939,0.3946,0.3957,0.3951,0.3963,0.3962,0.3962,0.3969,0.3961,0.3968,0.3961,0.3968,0.3964,0.3976,0.3978,0.3977,0.3976,0.3978,0.3978,0.398,0.3978,0.3972,0.3972,0.3972,0.3972,0,0.3963,0.3958,0.397,0.3969,0.3969,0.3977,0.3977,0.3983,0.3981,0.399,0.3992,0.3988,0.3995,0.3991,0.3999,0.3997,0.4013,0.4009,0.4012,0.4011,0.4024,0.4023,0.4064,0.407,0.4031,0.4031,0.4031,0,0.3979,0.3987,0.3987,0.3991,0.3991,0.3998,0.4001,0.3996,0.4,0.4003,0.4009,0.4016,0.4021,0.4033,0.4032,0.4038,0.4035,0.4049,0.4035,0.4037,0.4036,0.4035,0.4037,0.4051,0.4052,0.4052,0.4052,0,0.4009,0.4007,0.4012,0.4017,0.4021,0.4025,0.4028,0.4032,0.4026,0.4031,0.4039,0.4043,0.4051,0.4058,0.4063,0.4064,0.4058,0.4057,0.406,0.4062,0.4064,0.4064,0.402,0.4056,0.4055,0.4055,0.4055,0.4055,0.4032,0.4039,0.404,0.4046,0.4048,0.4051,0.4058,0.4057,0.4063,0.4069,0.4065,0.4074,0.4077,0.4084,0.4085,0.4093,0.4087,0.4092,0.4093,0.4094,0.4097,0.4062,0.4094,0.4094,0.4094,0.4094,0.4093,0,0.4062,0.4063,0.4069,0.4073,0.4079,0.4072,0.4075,0.408,0.4088,0.4091,0.4096,0.4106,0.4113,0.4113,0.4119,0.4126,0.4123,0.4128,0.4127,0.4128,0.4101,0.4097,0.413,0.413,0.413,0.413,0.413,0.413,0.4078,0.409,0.4088,0.4101,0.4102,0.4111,0.4113,0.4117,0.4119,0.4129,0.4135,0.4135,0.4137,0.4144,0.4151,0.4151,0.4154,0.416,0.4159,0.4133,0.413,0.4126,0.4123,0.4161,0.4161,0.4185,0.4186,0.4186]},{"header":{"parameterUnit":"m.s-1","parameterCategory":1,"la1":30.2991,"la2":30.254,"lo1":-89.0895,"lo2":-89.0444,"dy":0.0017,"dx":0.0017,"nx":28,"ny":28,"refTime":"2024-03-27T21:00:00:Z","depth":0,"parameterNumber":3,"parameterNumberName":"V-component_of_WINDS"},"data":[0,0,0,0,0,0,0,0,0,0,0,0,0,0,0,0,0,0,0,0,0,0,0,0,0,0,0,0,0,0,0,0,0,0,0,0,0,0,0,0,0,0,0,0,0,0,0,0,0,0,0,0,0,0,0,0,0,0,-6.364,-6.3641,0,-6.3745,-6.3746,-6.3747,-6.3716,-6.3714,-6.3712,-6.371,-6.3811,-6.3815,-6.382,0,0,0,0,0,0,0,0,0,0,0,0,0,-6.3408,-6.3412,-6.364,-6.3641,-6.3643,-6.3745,-6.3746,-6.3748,-6.3717,-6.3714,-6.3711,-6.3709,-6.3809,-6.3815,-6.382,0,0,0,0,0,0,0,0,0,0,0,0,0,-6.351,-6.3414,-6.364,-6.364,-6.3641,-6.3745,-6.3746,-6.3748,-6.3717,-6.3714,-6.3711,-6.3708,-6.3807,-6.3814,-6.3821,-6.393,0,0,-6.3843,-6.3846,0,0,0,0,0,0,0,0,-6.3505,-6.3519,-6.3638,-6.364,-6.3641,-6.3714,-6.3701,-6.3809,-6.3718,-6.3688,-6.371,-6.3706,-6.3781,-6.379,-6.3816,-6.3934,-6.3939,-6.3843,-6.3848,-6.3851,-6.3853,0,0,0,0,0,0,0,-6.3497,-6.3514,-6.3681,-6.364,-6.3642,-6.3633,-6.3644,-6.3722,-6.3751,-6.369,-6.3688,-6.3701,-6.3781,-6.381,-6.3819,-6.394,-6.3843,-6.3849,-6.3854,-6.3856,-6.4154,-6.4158,0,0,0,0,0,0,-6.349,-6.3508,-6.3678,-6.3685,-6.3564,-6.364,-6.3652,-6.3694,-6.375,-6.3756,-6.3704,-6.37,-6.3799,-6.381,-6.3822,-6.3954,-6.3851,-6.3857,-6.3861,-6.415,-6.4155,-6.4159,0,0,0,0,0,0,-6.3485,-6.3506,-6.3674,-6.3596,-6.3617,-6.3647,-6.3695,-6.3698,-6.3727,-6.3761,-6.3765,-6.3729,-6.3797,-6.3812,-6.3904,-6.3957,-6.386,-6.3867,-6.4146,-6.4152,-6.4157,-6.4219,0,0,0,0,0,0,-6.3479,-6.3504,-6.3547,-6.3597,-6.3621,-6.3756,-6.3698,-6.3702,-6.374,-6.3735,-6.3785,-6.379,-6.3796,-6.3894,-6.3911,-6.3965,-6.3872,-6.4141,-6.4149,-6.4155,-6.4212,-6.4226,-6.4237,0,0,0,0,0,-6.3471,-6.3558,-6.3549,-6.357,-6.3675,-6.3759,-6.3772,-6.3779,-6.3744,-6.3787,-6.3809,-6.3788,-6.3949,-6.3903,-6.3923,-6.398,-6.4138,-6.4147,-6.4155,-6.4206,-6.4223,-6.4237,0,0,0,0,0,0,-6.351,-6.3564,-6.3555,-6.3662,-6.3707,-6.3754,-6.3807,-6.3796,-6.385,-6.3843,-6.3847,-6.3858,-6.3953,-6.3975,-6.3924,-6.4089,-6.4038,-6.405,-6.4071,-6.4087,-6.4099,-6.4092,-6.3878,0,0,0,0,0,-6.3531,-6.3597,-6.364,-6.373,-6.3753,-6.3777,-6.3813,-6.3815,-6.386,-6.3878,-6.3907,-6.395,-6.401,-6.4049,-6.4106,-6.4215,-6.4226,-6.4264,-6.4276,-6.4287,-6.4297,-6.4358,-6.4376,-6.4186,-6.4186,-6.4186,0,0,-6.3575,-6.3613,-6.3654,-6.3739,-6.3773,-6.384,-6.3792,-6.3864,-6.3913,-6.3888,-6.3978,-6.4001,-6.4049,-6.415,-6.4196,-6.4172,-6.4353,-6.4297,-6.4305,-6.431,-6.4368,-6.4386,-6.4402,-6.4192,-6.4191,-6.419,0,0,-6.369,-6.3725,-6.3805,-6.3842,-6.3896,-6.3912,-6.3931,-6.3981,-6.3996,-6.4087,-6.407,-6.4127,-6.423,-6.4266,-6.4298,-6.4429,-6.4413,-6.4447,-6.4513,-6.4572,-6.4587,-6.46,-6.4648,-6.4665,-6.4458,-6.4458,-6.4458,0,-6.3738,-6.3839,-6.3847,-6.3922,-6.396,-6.3943,-6.4024,-6.4058,-6.4127,-6.4153,-6.4125,-6.4257,-6.4287,-6.4398,-6.443,-6.4456,-6.4478,-6.4442,-6.4585,-6.4598,-6.4611,-6.4656,-6.4674,-6.4462,-6.4462,-6.4461,-6.4461,0,-6.3895,-6.3966,-6.4023,-6.4094,-6.4139,-6.4215,-6.4234,-6.4278,-6.4276,-6.4294,-6.4387,-6.4425,-6.449,-6.4516,-6.4513,-6.4627,-6.461,-6.4584,-6.4533,-6.4633,-6.4676,-6.4693,-6.4468,-6.4466,-6.4465,-6.4464,0,0,-6.4036,-6.4113,-6.4134,-6.4167,-6.4227,-6.4281,-6.4357,-6.4423,-6.4461,-6.4509,-6.4573,-6.4663,-6.4639,-6.4675,-6.4677,-6.4729,-6.4832,-6.4696,-6.4697,-6.4721,-6.496,-6.498,-6.5,-6.4821,-6.4825,-6.4827,-6.4956,0,-6.4157,-6.4294,-6.4305,-6.4428,-6.4493,-6.448,-6.4546,-6.4589,-6.4608,-6.4666,-6.4685,-6.475,-6.4713,-6.4735,-6.4786,-6.4809,-6.488,-6.4799,-6.488,-6.4883,-6.487,-6.5023,-6.5044,-6.5164,-6.4973,-6.4976,-6.4978,0,-6.4316,-6.4373,-6.4504,-6.4557,-6.4584,-6.4644,-6.4707,-6.4762,-6.4811,-6.4821,-6.4863,-6.4858,-6.4936,-6.4883,-6.4989,-6.4934,-6.4967,-6.4984,-6.4989,-6.4997,-6.4937,-6.5036,-6.5202,-6.5221,-6.5004,-6.5002,-6.5,0,-6.4408,-6.4517,-6.461,-6.4638,-6.4701,-6.4744,-6.4772,-6.4818,-6.4858,-6.4912,-6.4938,-6.5,-6.5033,-6.508,-6.5092,-6.5052,-6.5199,-6.5146,-6.5209,-6.5209,-6.5241,-6.5239,-6.5416,-6.5261,-6.5261,-6.5261,-6.526,0,-6.4542,-6.4623,-6.4652,-6.4709,-6.4799,-6.481,-6.4898,-6.4923,-6.4964,-6.5025,-6.5016,-6.5072,-6.5084,-6.5143,-6.5152,-6.524,-6.5254,-6.5264,-6.5266,-6.5266,-6.5265,-6.5288,-6.5281,-6.5265,-6.5264,-6.5263,-6.5263,0,-6.466,-6.4683,-6.4783,-6.4837,-6.4852,-6.4916,-6.496,-6.5015,-6.5034,-6.5111,-6.5129,-6.5158,-6.5227,-6.5244,-6.5325,-6.5331,-6.5435,-6.5428,-6.542,-6.542,-6.5482,-6.5477,-6.5681,-6.5709,-6.5535,-6.5537,-6.5538,0,-6.4744,-6.4807,-6.4868,-6.4909,-6.494,-6.5007,-6.5049,-6.5062,-6.5105,-6.5167,-6.5214,-6.5283,-6.5339,-6.5449,-6.5477,-6.5539,-6.5534,-6.5601,-6.5543,-6.5542,-6.5536,-6.5533,-6.554,-6.5612,-6.5614,-6.5616,-6.5617,0,-6.4893,-6.4902,-6.4964,-6.5031,-6.5082,-6.5135,-6.5185,-6.5219,-6.5239,-6.5288,-6.5361,-6.5404,-6.5489,-6.5557,-6.5621,-6.5647,-6.5636,-6.5635,-6.5653,-6.5654,-6.5648,-6.5653,-6.5451,-6.563,-6.5629,-6.5628,-6.5627,-6.5627,-6.4997,-6.5053,-6.5105,-6.5175,-6.5215,-6.5263,-6.5318,-6.5345,-6.5406,-6.5479,-6.5482,-6.5561,-6.5608,-6.5693,-6.5724,-6.5785,-6.5764,-6.579,-6.5796,-6.5803,-6.5809,-6.5638,-6.5796,-6.5795,-6.5795,-6.5795,-6.5795,0,-6.5146,-6.518,-6.5244,-6.5317,-6.5372,-6.5359,-6.5414,-6.5461,-6.5531,-6.5578,-6.5635,-6.5718,-6.5785,-6.5818,-6.5884,-6.5927,-6.5923,-6.5944,-6.5941,-6.5948,-6.5823,-6.5802,-6.5946,-6.5946,-6.5946,-6.5946,-6.5946,-6.5946,-6.523,-6.5324,-6.534,-6.5454,-6.5486,-6.5566,-6.5599,-6.5643,-6.5681,-6.5776,-6.5832,-6.5855,-6.5896,-6.5966,-6.6026,-6.6034,-6.6059,-6.6083,-6.6088,-6.5971,-6.5956,-6.5941,-6.5921,-6.6088,-6.6088,-6.6207,-6.6208,-6.6209]}]]